• In Czech Republic
  • List of Countries
  • For 7 days
  • Water Temperature
  • Satellite Maps
  • Weather Map
  • Weather Widgets
  • user-avatar
    Login

    Hourly Weather Kalgoorlie

    Today, 27 June, Tuesday

    Time Temperature Precipitation Wind Pressure Humidity
    00:00 +10°C° 0 mm 1 mps 736 mmHg 63%
    01:00 +10°C° 0 mm 1 mps 736 mmHg 63%
    02:00 +9°C° 0 mm 1 mps 735 mmHg 65%
    03:00 +8°C° 0 mm 2 mps 736 mmHg 66%
    04:00 +8°C° 0 mm 2 mps 736 mmHg 66%
    05:00 +8°C° 0 mm 2 mps 736 mmHg 66%
    06:00 +9°C° 0 mm 2 mps 736 mmHg 66%
    07:00 +9°C° 0 mm 2 mps 736 mmHg 66%
    08:00 +9°C° 0 mm 2 mps 737 mmHg 65%
    09:00 +11°C° 0 mm 3 mps 737 mmHg 61%
    10:00 +12°C° 0 mm 3 mps 737 mmHg 56%
    11:00 +14°C° 0 mm 4 mps 737 mmHg 52%
    12:00 +14°C° 0 mm 4 mps 737 mmHg 51%
    13:00 +14°C° 0 mm 4 mps 736 mmHg 49%
    14:00 +15°C° 0 mm 4 mps 736 mmHg 48%
    15:00 +14°C° 0 mm 4 mps 736 mmHg 50%
    16:00 +13°C° 0 mm 3 mps 736 mmHg 51%
    17:00 +13°C° 0 mm 3 mps 736 mmHg 52%
    18:00 +12°C° 0 mm 3 mps 737 mmHg 56%
    19:00 +11°C° 0 mm 3 mps 737 mmHg 59%
    20:00 +10°C° 0 mm 3 mps 738 mmHg 63%
    21:00 +10°C° 0 mm 3 mps 738 mmHg 69%
    22:00 +9°C° 0 mm 3 mps 738 mmHg 76%
    23:00 +9°C° 0 mm 3 mps 738 mmHg 82%

    Tomorrow, 28 June, Wednesday

    Time Temperature Precipitation Wind Pressure Humidity
    00:00 +8°C° 0 mm 3 mps 739 mmHg 86%
    01:00 +8°C° 0 mm 3 mps 739 mmHg 90%
    02:00 +8°C° 0 mm 3 mps 739 mmHg 94%
    03:00 +7°C° 0 mm 3 mps 739 mmHg 94%
    04:00 +6°C° 0 mm 4 mps 739 mmHg 95%
    05:00 +6°C° 0 mm 4 mps 739 mmHg 96%
    06:00 +6°C° 0 mm 4 mps 740 mmHg 95%
    07:00 +6°C° 0 mm 4 mps 740 mmHg 94%
    08:00 +6°C° 0 mm 4 mps 741 mmHg 92%
    09:00 +8°C° 0 mm 4 mps 741 mmHg 81%
    10:00 +10°C° 0 mm 5 mps 741 mmHg 71%
    11:00 +13°C° 0 mm 5 mps 741 mmHg 60%
    12:00 +13°C° 0 mm 5 mps 741 mmHg 53%
    13:00 +14°C° 0 mm 5 mps 740 mmHg 47%
    14:00 +15°C° 0 mm 5 mps 740 mmHg 41%
    15:00 +14°C° 0 mm 4 mps 740 mmHg 44%
    16:00 +13°C° 0 mm 4 mps 740 mmHg 47%
    17:00 +11°C° 0 mm 3 mps 740 mmHg 50%
    18:00 +11°C° 0 mm 3 mps 741 mmHg 54%
    19:00 +10°C° 0 mm 3 mps 741 mmHg 57%
    20:00 +9°C° 0 mm 3 mps 742 mmHg 61%
    21:00 +7°C° 0 mm 4 mps 742 mmHg 66%
    22:00 +7°C° 0 mm 4 mps 742 mmHg 70%
    23:00 +6°C° 0 mm 4 mps 742 mmHg 75%

    Day after tomorrow, 29 June, Thursday

    Time Temperature Precipitation Wind Pressure Humidity
    00:00 +6°C° 0 mm 4 mps 742 mmHg 78%
    01:00 +5°C° 0 mm 4 mps 742 mmHg 82%
    02:00 +5°C° 0 mm 4 mps 742 mmHg 85%
    03:00 +4°C° 0 mm 4 mps 742 mmHg 88%
    04:00 +4°C° 0 mm 4 mps 741 mmHg 90%
    05:00 +4°C° 0 mm 4 mps 741 mmHg 93%
    06:00 +4°C° 0 mm 4 mps 742 mmHg 91%
    07:00 +4°C° 0 mm 4 mps 742 mmHg 90%
    08:00 +4°C° 0 mm 4 mps 742 mmHg 89%
    09:00 +6°C° 0 mm 5 mps 742 mmHg 76%
    10:00 +8°C° 0 mm 5 mps 742 mmHg 64%
    11:00 +10°C° 0 mm 6 mps 742 mmHg 52%
    12:00 +11°C° 0 mm 6 mps 741 mmHg 47%
    13:00 +13°C° 0 mm 6 mps 740 mmHg 42%
    14:00 +14°C° 0 mm 6 mps 739 mmHg 38%
    15:00 +13°C° 0 mm 5 mps 739 mmHg 41%
    16:00 +12°C° 0 mm 4 mps 739 mmHg 44%
    17:00 +11°C° 0 mm 3 mps 739 mmHg 48%
    18:00 +10°C° 0 mm 4 mps 739 mmHg 51%
    19:00 +8°C° 0 mm 4 mps 739 mmHg 54%
    20:00 +7°C° 0 mm 4 mps 739 mmHg 56%
    21:00 +7°C° 0 mm 4 mps 739 mmHg 58%
    22:00 +6°C° 0 mm 4 mps 738 mmHg 60%
    23:00 +6°C° 0 mm 4 mps 738 mmHg 62%

    30 June, Friday

    Time Temperature Precipitation Wind Pressure Humidity
    00:00 +6°C° 0 mm 4 mps 738 mmHg 64%
    01:00 +5°C° 0 mm 4 mps 737 mmHg 66%
    02:00 +5°C° 0 mm 5 mps 737 mmHg 67%
    03:00 +5°C° 0 mm 5 mps 737 mmHg 69%
    04:00 +3°C° 0 mm 5 mps 736 mmHg 71%
    05:00 +3°C° 0 mm 5 mps 736 mmHg 73%
    06:00 +3°C° 0 mm 5 mps 736 mmHg 72%
    07:00 +3°C° 0 mm 5 mps 736 mmHg 72%
    08:00 +4°C° 0 mm 6 mps 736 mmHg 71%
    09:00 +7°C° 0 mm 6 mps 736 mmHg 63%
    10:00 +9°C° 0 mm 7 mps 735 mmHg 55%
    11:00 +11°C° 0 mm 8 mps 735 mmHg 46%
    12:00 +12°C° 0 mm 8 mps 734 mmHg 42%
    13:00 +13°C° 0 mm 8 mps 732 mmHg 38%
    14:00 +15°C° 0 mm 7 mps 731 mmHg 34%
    15:00 +14°C° 0 mm 6 mps 731 mmHg 36%
    16:00 +13°C° 0 mm 5 mps 731 mmHg 39%
    17:00 +12°C° 0 mm 4 mps 730 mmHg 41%
    18:00 +11°C° 0 mm 4 mps 731 mmHg 43%
    19:00 +10°C° 0 mm 4 mps 731 mmHg 45%
    20:00 +8°C° 0 mm 4 mps 731 mmHg 46%
    21:00 +8°C° 0 mm 4 mps 731 mmHg 46%
    22:00 +8°C° 0 mm 4 mps 731 mmHg 46%
    23:00 +7°C° 0 mm 4 mps 730 mmHg 46%

    1 July, Saturday

    Time Temperature Precipitation Wind Pressure Humidity
    00:00 +7°C° 0 mm 4 mps 730 mmHg 46%
    01:00 +7°C° 0 mm 4 mps 730 mmHg 46%
    02:00 +7°C° 0 mm 4 mps 730 mmHg 45%
    03:00 +7°C° 0 mm 4 mps 729 mmHg 47%
    04:00 +6°C° 0 mm 4 mps 729 mmHg 49%
    05:00 +6°C° 0 mm 4 mps 729 mmHg 50%
    06:00 +7°C° 0 mm 4 mps 730 mmHg 55%
    07:00 +7°C° 0 mm 4 mps 730 mmHg 59%
    08:00 +7°C° 0 mm 5 mps 730 mmHg 64%
    09:00 +10°C° 0 mm 5 mps 730 mmHg 63%
    10:00 +13°C° 0 mm 6 mps 730 mmHg 63%
    11:00 +15°C° 0 mm 7 mps 729 mmHg 62%
    12:00 +15°C° 0 mm 7 mps 729 mmHg 62%
    13:00 +15°C° 0 mm 7 mps 728 mmHg 61%
    14:00 +15°C° 0 mm 8 mps 728 mmHg 60%
    15:00 +14°C° 0 mm 7 mps 728 mmHg 62%
    16:00 +14°C° 0 mm 6 mps 728 mmHg 64%
    17:00 +13°C° 0 mm 5 mps 728 mmHg 67%
    18:00 +11°C° 0 mm 6 mps 728 mmHg 67%
    19:00 +10°C° 0 mm 6 mps 728 mmHg 68%
    20:00 +10°C° 0 mm 6 mps 729 mmHg 68%
    21:00 +9°C° 0.4 mm 7 mps 729 mmHg 71%
    22:00 +9°C° 0.4 mm 7 mps 729 mmHg 73%
    23:00 +7°C° 0.4 mm 8 mps 729 mmHg 76%

    2 July, Sunday

    Time Temperature Precipitation Wind Pressure Humidity
    00:00 +7°C° 0.2 mm 8 mps 729 mmHg 75%
    01:00 +6°C° 0.2 mm 8 mps 729 mmHg 75%
    02:00 +6°C° 0.2 mm 8 mps 729 mmHg 74%
    03:00 +5°C° 0 mm 8 mps 729 mmHg 75%
    04:00 +4°C° 0 mm 8 mps 730 mmHg 75%
    05:00 +2°C° 0 mm 8 mps 730 mmHg 76%
    06:00 +2°C° 0 mm 8 mps 731 mmHg 75%
    07:00 +2°C° 0 mm 8 mps 731 mmHg 74%
    08:00 +2°C° 0 mm 9 mps 732 mmHg 72%
    09:00 +3°C° 0 mm 9 mps 732 mmHg 65%
    10:00 +6°C° 0 mm 10 mps 732 mmHg 58%
    11:00 +7°C° 0 mm 10 mps 732 mmHg 51%
    12:00 +8°C° 0 mm 10 mps 732 mmHg 48%
    13:00 +9°C° 0 mm 10 mps 732 mmHg 46%
    14:00 +9°C° 0 mm 10 mps 732 mmHg 43%
    15:00 +9°C° 0 mm 8 mps 732 mmHg 46%
    16:00 +9°C° 0 mm 7 mps 733 mmHg 49%
    17:00 +8°C° 0 mm 5 mps 733 mmHg 52%
    18:00 +7°C° 0 mm 5 mps 734 mmHg 56%
    19:00 +7°C° 0 mm 5 mps 734 mmHg 59%
    20:00 +6°C° 0 mm 4 mps 735 mmHg 62%
    21:00 +6°C° 0 mm 4 mps 735 mmHg 65%
    22:00 +5°C° 0 mm 4 mps 736 mmHg 68%
    23:00 +5°C° 0 mm 4 mps 736 mmHg 70%
    Show more